Change the Weather History Date:

Sunday, August 17, 2014

  Actual Average Record
Temperature  
Mean Temperature 84 °F -  
Max Temperature 91 °F 92 °F 96 °F (1972)
Min Temperature 77 °F 75 °F 65 °F (1976)
Cooling Degree Days 19    
Growing Degree Days 34 (Base 50)    
Moisture  
Dew Point 76 °F    
Average Humidity 79    
Maximum Humidity 100    
Minimum Humidity 57    
Precipitation  
Precipitation 0.00 in - - ()
Sea Level Pressure  
Sea Level Pressure 30.09 in    
Wind  
Wind Speed 3 mph (East)    
Max Wind Speed 10 mph    
Max Gust Speed -    
Visibility 10 miles    
Events Thunderstorm    
Averages and records for this station are not official NWS values.
T = Trace of Precipitation, MM = Missing Value Source: NWS Daily Summary

Daily Weather History Graph

Daily Weather History Graph

Search for Another Location

Airport or City:

Trip Planner

Search our weather history database for the weather conditions in past years. The results will help you decide how hot, cold, wet, or windy it might be!

Date:

Astronomy

Aug. 17, 2014 Rise Set
Actual Time 6:54 AM EDT 7:55 PM EDT
Civil Twilight 6:30 AM EDT 8:19 PM EDT
Nautical Twilight 6:01 AM EDT 8:47 PM EDT
Astronomical Twilight 5:32 AM EDT 9:16 PM EDT
Moon 12:21 AM EDT (8/17) 1:53 PM EDT (8/17)
Length of Visible Light 13h 48m
Length of Day
13h 00m
Waning Gibbous, 48% of the Moon is Illuminated
Aug 17
Waning Gibbous
Aug 25
New
Sep 2
First Quarter
Sep 8
Full
Sep 15
Last Quarter

Hourly Weather History & Observations

Time (EDT) Temp. Heat Index Dew Point Humidity Pressure Visibility Wind Dir Wind Speed Gust Speed Precip Events Conditions
12:53 AM 78.1 °F - 77.0 °F 96% 30.10 in 10.0 mi Calm Calm - N/A   Clear
1:53 AM 78.1 °F - 77.0 °F 96% 30.09 in 10.0 mi Calm Calm - N/A   Clear
2:53 AM 77.0 °F - 77.0 °F 100% 30.07 in 10.0 mi North 3.5 mph - N/A   Clear
3:53 AM 77.0 °F - 75.9 °F 96% 30.07 in 10.0 mi Calm Calm - N/A   Partly Cloudy
4:53 AM 77.0 °F - 75.9 °F 96% 30.07 in 10.0 mi Calm Calm - N/A   Clear
5:53 AM 77.0 °F - 75.9 °F 96% 30.08 in 10.0 mi Calm Calm - N/A   Clear
6:53 AM 79.0 °F - 78.1 °F 97% 30.09 in 10.0 mi North 3.5 mph - N/A   Partly Cloudy
7:53 AM 79.0 °F - 77.0 °F 94% 30.10 in 10.0 mi Calm Calm - N/A   Scattered Clouds
8:53 AM 80.1 °F 86.7 °F 79.0 °F 96% 30.11 in 10.0 mi Calm Calm - N/A   Mostly Cloudy
9:53 AM 84.0 °F 98.1 °F 81.0 °F 90% 30.12 in 10.0 mi North 3.5 mph - N/A   Scattered Clouds
10:53 AM 88.0 °F 103.1 °F 79.0 °F 75% 30.12 in 10.0 mi Calm Calm - N/A   Scattered Clouds
11:53 AM 89.1 °F 101.4 °F 77.0 °F 67% 30.12 in 10.0 mi ESE 6.9 mph - N/A   Scattered Clouds
12:53 PM 90.0 °F 102.5 °F 77.0 °F 65% 30.11 in 10.0 mi ESE 10.4 mph - N/A   Scattered Clouds
1:53 PM 91.0 °F 104.2 °F 77.0 °F 63% 30.09 in 10.0 mi ESE 10.4 mph - N/A Thunderstorm Thunderstorm
2:53 PM 80.6 °F 84.6 °F 71.6 °F 74% 30.09 in 10.0 mi WNW 5.8 mph - N/A Thunderstorm Thunderstorm
3:36 PM 84.0 °F 89.0 °F 71.1 °F 65% 30.08 in 10.0 mi NE 3.5 mph - N/A   Scattered Clouds
3:53 PM 87.1 °F 92.0 °F 70.0 °F 57% 30.08 in 10.0 mi Calm Calm - N/A   Scattered Clouds
4:53 PM 88.0 °F 98.5 °F 75.9 °F 67% 30.07 in 10.0 mi ESE 8.1 mph - N/A   Partly Cloudy
5:53 PM 89.1 °F 99.1 °F 75.0 °F 63% 30.06 in 10.0 mi East 10.4 mph - N/A   Clear
6:53 PM 87.1 °F 94.5 °F 73.0 °F 63% 30.06 in 10.0 mi East 8.1 mph - N/A   Scattered Clouds
7:53 PM 86.0 °F 93.8 °F 73.9 °F 67% 30.07 in 10.0 mi ESE 5.8 mph - N/A   Scattered Clouds
8:53 PM 84.0 °F 91.9 °F 75.0 °F 74% 30.07 in 10.0 mi SE 4.6 mph - N/A   Clear
9:53 PM 84.0 °F 91.9 °F 75.0 °F 74% 30.08 in 10.0 mi SE 3.5 mph - N/A   Clear
10:53 PM 84.0 °F 91.9 °F 75.0 °F 74% 30.09 in 10.0 mi Calm Calm - N/A   Clear
11:53 PM 82.9 °F 90.8 °F 75.9 °F 79% 30.10 in 10.0 mi ESE 3.5 mph - N/A   Clear